Lid_Strength_Index
23 22 22 22 21 21 22 21 23 22 22 23 24 23 23 22 20 19 18 17 16 15 14 14 13 12 12 11 11 11 11 11 11 10 10 10 10 10 10 9 9 9 8 8
25 22 22 23 21 20 20 19 20 21 23 24 23 23 21 20 20 19 17 16 15 14 13 13 13 13 12 12 12 11 11 11 10 10 10 10 9 9 9 9 9 9 9 8
27 23 23 25 24 21 21 22 22 23 24 25 23 21 20 19 18 17 16 15 14 14 14 13 13 12 13 12 12 12 12 11 11 10 10 10 9 9 9 9 9 9 9 9
25 24 30 24 22 22 23 23 25 23 23 23 22 19 18 17 17 16 15 14 14 14 14 13 13 13 12 12 12 12 12 11 10 10 10 10 9 9 9 9 10 10 9 9
25 26 24 24 23 23 24 24 25 25 23 21 20 19 20 15 14 14 14 14 14 13 13 13 13 13 13 13 12 11 11 11 11 10 10 10 10 10 9 9 9 9 9 9
24 26 28 26 21 21 25 26 24 23 21 21 20 22 18 15 14 14 14 14 14 14 13 13 13 12 12 12 12 12 11 10 9 9 9 9 9 9 8 8 8 9 9 8
24 25 24 23 20 20 28 26 22 20 20 19 21 19 16 15 15 14 14 14 14 14 14 13 12 12 12 12 12 10 9 9 10 9 9 9 9 9 9 9 9 9 9 9
24 26 28 21 21 23 22 21 20 19 19 18 17 16 15 15 15 15 15 14 14 14 14 12 12 12 13 12 11 10 11 11 10 10 9 9 9 9 9 9 10 11 11 11
22 23 23 21 20 20 20 20 19 19 17 17 17 16 15 15 16 15 15 15 14 14 13 13 12 12 13 12 11 11 11 11 11 10 10 10 10 10 10 11 12 12 12 12
22 23 23 22 21 20 19 19 18 17 17 16 17 16 16 16 16 16 15 15 14 14 14 14 13 12 12 12 11 11 12 12 11 11 9 9 9 9 10 12 12 12 12 11
24 24 22 21 20 20 18 17 17 16 16 16 16 16 16 17 16 16 16 14 14 15 15 14 13 13 12 11 11 12 12 12 12 10 11 11 11 11 9 10 11 11 10 9
24 22 23 21 20 18 18 17 16 17 16 15 16 17 16 17 16 16 15 15 15 15 15 14 14 13 12 11 12 12 13 13 12 12 12 12 13 13 10 8 7 7 7 8
24 22 21 19 18 17 18 16 16 16 16 17 16 17 17 17 17 13 16 16 16 16 15 15 13 13 12 12 12 13 13 13 13 13 13 14 14 14 15 13 10 8 7 7
22 22 20 19 19 17 16 16 15 16 16 17 17 16 17 17 16 17 17 17 16 15 16 14 14 13 12 12 12 13 13 11 14 14 14 14 14 14 14 15 16 15 11 10
20 20 20 18 17 16 16 16 17 17 17 17 17 18 18 18 19 19 18 17 16 16 15 15 13 14 12 13 13 13 13 12 13 14 14 14 15 15 15 15 16 16 16 14
19 18 18 17 17 17 17 17 19 19 19 20 20 20 20 20 20 20 19 18 18 18 16 14 14 13 12 13 13 13 13 11 12 14 15 16 16 16 16 17 16 16 16 17
22 21 21 20 20 24 25 27 26 23 23 22 22 21 21 21 21 19 19 18 18 18 15 14 15 11 13 13 13 14 14 13 12 14 15 16 16 16 16 16 17 17 16 15
26 26 27 25 25 27 24 27 28 26 27 23 23 23 23 22 20 21 19 19 18 17 14 14 12 11 13 13 13 14 14 14 14 15 15 15 16 15 16 16 17 18 18 16
30 27 28 28 28 28 27 26 27 28 25 25 23 23 23 23 22 21 20 19 19 18 16 14 10 12 13 13 12 14 15 14 14 14 15 15 16 16 16 16 17 17 18 18
28 29 30 29 29 29 26 26 26 26 24 25 25 23 22 21 21 21 20 20 19 17 13 13 13 12 13 13 12 15 15 15 15 15 14 15 16 16 16 15 16 17 17 18
27 27 27 26 26 26 25 24 24 24 22 24 23 22 21 21 20 19 18 18 17 15 12 12 13 11 12 13 15 15 15 16 16 15 16 16 16 16 16 16 16 17 17 17
26 25 23 22 22 20 19 20 21 21 20 20 19 18 18 18 18 17 16 19 15 11 13 14 14 10 12 13 16 16 16 16 16 16 16 16 16 16 16 16 16 16 16 17
18 18 17 18 19 19 19 18 18 18 18 18 18 17 17 16 17 19 18 16 14 13 13 15 11 10 12 15 16 16 17 16 16 16 16 16 16 16 16 16 16 16 16 16
17 17 19 18 20 19 21 19 18 18 18 17 16 16 16 17 17 17 16 14 13 12 13 13 12 11 13 16 17 17 17 17 16 17 17 15 17 17 17 16 16 16 16 15
18 19 21 21 20 19 19 18 18 18 18 17 16 17 16 17 19 17 18 17 14 14 16 14 12 12 16 17 18 18 18 17 15 17 18 18 18 17 17 17 16 15 16 16
19 19 19 18 18 18 18 17 18 17 17 18 17 17 17 16 17 17 18 15 17 15 17 17 16 15 16 16 18 19 19 18 17 18 18 18 18 18 18 17 17 16 16 15
20 15 18 17 17 17 18 16 17 18 17 18 18 16 16 17 17 16 16 19 18 17 17 18 18 16 16 16 18 19 19 20 18 17 19 19 19 19 19 18 17 17 16 16